Time,TemperatureF,DewpointF,PressureIn,WindDirection,WindDirectionDegrees,WindSpeedMPH,WindSpeedGustMPH,Humidity,HourlyPrecipIn,Conditions,Clouds,dailyrainin,SoftwareType,DateUTC
2013-08-24 00:24:00,71.0,69.0,30.00,WSW,258,0.0,1.0,92,0.00,,,0.16,,2013-08-24 04:24:00,
2013-08-24 00:54:00,71.0,69.0,30.01,SW,232,1.0,1.0,92,0.01,,,0.17,,2013-08-24 04:54:00,
2013-08-24 01:23:00,71.0,69.0,30.02,NNE,16,0.0,1.0,92,0.02,,,0.18,,2013-08-24 05:23:00,
2013-08-24 01:53:00,71.0,69.0,30.03,NW,304,0.0,1.0,92,0.03,,,0.20,,2013-08-24 05:53:00,
2013-08-24 02:02:00,71.0,69.0,30.03,NW,304,0.0,1.0,92,0.03,,,0.20,,2013-08-24 06:02:00,
2013-08-24 02:22:00,71.0,69.0,30.03,NW,319,0.0,1.0,92,0.03,,,0.21,,2013-08-24 06:22:00,
2013-08-24 02:52:00,71.0,69.0,30.02,NW,319,0.0,0.0,92,0.03,,,0.21,,2013-08-24 06:52:00,
2013-08-24 02:53:00,71.0,69.0,30.02,WNW,287,0.0,1.0,92,0.00,,,0.21,,2013-08-24 06:53:00,
2013-08-24 03:12:00,71.0,69.0,30.02,WNW,286,0.0,1.0,92,0.00,,,0.21,,2013-08-24 07:12:00,
2013-08-24 03:22:00,71.0,69.0,30.02,WNW,287,0.0,1.0,92,0.00,,,0.21,,2013-08-24 07:22:00,
2013-08-24 03:32:00,71.0,69.0,30.02,WNW,287,0.0,1.0,92,0.00,,,0.21,,2013-08-24 07:32:00,
2013-08-24 03:43:00,71.0,69.0,30.02,WNW,287,0.0,1.0,92,0.00,,,0.21,,2013-08-24 07:43:00,
2013-08-24 04:22:00,70.0,68.0,30.02,NNW,345,1.0,2.0,92,0.00,,,0.21,,2013-08-24 08:22:00,
2013-08-24 04:52:00,71.0,69.0,30.03,North,354,0.0,2.0,92,0.00,,,0.21,,2013-08-24 08:52:00,
2013-08-24 05:22:00,71.0,69.0,30.05,NNE,18,1.0,3.0,92,0.00,,,0.21,,2013-08-24 09:22:00,
2013-08-24 05:53:00,70.0,68.0,30.05,North,350,1.0,2.0,92,0.00,,,0.21,,2013-08-24 09:53:00,
2013-08-24 06:23:00,69.0,67.0,30.06,SSW,193,1.0,2.0,92,0.00,,,0.21,,2013-08-24 10:23:00,
2013-08-24 06:53:00,68.0,66.0,30.07,North,355,0.0,2.0,92,0.00,,,0.21,,2013-08-24 10:53:00,
2013-08-24 07:22:00,69.0,67.0,30.09,North,357,1.0,2.0,92,0.00,,,0.21,,2013-08-24 11:22:00,
2013-08-24 07:52:00,69.0,66.0,30.10,North,355,1.0,2.0,91,0.00,,,0.21,,2013-08-24 11:52:00,
2013-08-24 08:21:00,70.0,67.0,30.10,NNW,330,1.0,3.0,91,0.00,,,0.21,,2013-08-24 12:21:00,
2013-08-24 08:52:00,71.0,68.0,30.11,North,8,2.0,4.0,89,0.00,,,0.20,,2013-08-24 12:52:00,
2013-08-24 09:22:00,73.0,69.0,30.12,NNW,343,1.0,5.0,86,0.00,,,0.20,,2013-08-24 13:22:00,
2013-08-24 09:52:00,75.0,68.0,30.13,NNW,343,1.0,4.0,80,0.00,,,0.20,,2013-08-24 13:52:00,
2013-08-24 10:22:00,75.0,68.0,30.14,North,354,2.0,5.0,79,0.00,,,0.20,,2013-08-24 14:22:00,
2013-08-24 10:52:00,77.0,69.0,30.15,South,181,1.0,3.0,77,0.00,,,0.20,,2013-08-24 14:52:00,
2013-08-24 11:22:00,79.0,71.0,30.16,North,9,1.0,4.0,76,0.00,,,0.20,,2013-08-24 15:22:00,
2013-08-24 11:54:00,79.0,69.0,30.16,North,352,2.0,4.0,72,0.00,,,0.20,,2013-08-24 15:54:00,
2013-08-24 12:23:00,81.0,70.0,30.16,NE,44,2.0,7.0,69,0.00,,,0.20,,2013-08-24 16:23:00,
2013-08-24 12:53:00,82.0,70.0,30.16,North,349,2.0,4.0,68,0.00,,,0.20,,2013-08-24 16:53:00,
2013-08-24 13:23:00,84.0,70.0,30.17,SE,145,2.0,5.0,63,0.00,,,0.20,,2013-08-24 17:23:00,
2013-08-24 13:52:00,83.0,70.0,30.16,SE,141,1.0,6.0,65,0.00,,,0.20,,2013-08-24 17:52:00,
2013-08-24 14:22:00,84.0,69.0,30.17,West,266,2.0,6.0,61,0.00,,,0.20,,2013-08-24 18:22:00,
2013-08-24 14:53:00,84.0,69.0,30.17,NNE,12,2.0,6.0,61,0.00,,,0.20,,2013-08-24 18:53:00,
2013-08-24 15:22:00,84.0,68.0,30.17,SSE,165,2.0,8.0,58,0.00,,,0.20,,2013-08-24 19:22:00,
2013-08-24 15:52:00,84.0,70.0,30.16,WNW,291,1.0,4.0,62,0.00,,,0.20,,2013-08-24 19:52:00,
2013-08-24 16:22:00,84.0,69.0,30.17,SSW,198,2.0,8.0,60,0.00,,,0.20,,2013-08-24 20:22:00,
2013-08-24 16:53:00,82.0,69.0,30.17,SSW,210,3.0,6.0,64,0.00,,,0.20,,2013-08-24 20:53:00,
2013-08-24 17:22:00,81.0,70.0,30.17,West,274,2.0,10.0,70,0.00,,,0.20,,2013-08-24 21:22:00,
2013-08-24 17:55:00,80.0,69.0,30.18,WSW,239,1.0,6.0,69,0.00,,,0.20,,2013-08-24 21:55:00,
2013-08-24 18:24:00,80.0,68.0,30.18,ESE,110,2.0,9.0,66,0.00,,,0.20,,2013-08-24 22:24:00,
2013-08-24 18:53:00,79.0,67.0,30.18,SW,218,2.0,7.0,66,0.00,,,0.20,,2013-08-24 22:53:00,
2013-08-24 19:22:00,77.0,66.0,30.19,SSW,197,0.0,3.0,69,0.00,,,0.20,,2013-08-24 23:22:00,
2013-08-24 19:53:00,75.0,67.0,30.19,South,176,1.0,3.0,75,0.00,,,0.20,,2013-08-24 23:53:00,
2013-08-24 20:22:00,74.0,67.0,30.20,SSE,167,0.0,2.0,78,0.00,,,0.20,,2013-08-25 00:22:00,
2013-08-24 20:52:00,72.0,65.0,30.21,WSW,239,0.0,1.0,80,0.00,,,0.19,,2013-08-25 00:52:00,
2013-08-24 21:22:00,72.0,65.0,30.22,SSW,211,0.0,1.0,80,0.00,,,0.19,,2013-08-25 01:22:00,
2013-08-24 21:32:00,72.0,65.0,30.22,SSW,211,0.0,1.0,80,0.00,,,0.19,,2013-08-25 01:32:00,
2013-08-24 21:52:00,71.0,66.0,30.23,SE,146,1.0,2.0,83,0.00,,,0.18,,2013-08-25 01:52:00,
2013-08-24 22:22:00,71.0,66.0,30.23,NNE,29,1.0,3.0,83,0.00,,,0.18,,2013-08-25 02:22:00,
2013-08-24 22:52:00,72.0,66.0,30.24,SW,218,0.0,1.0,82,0.00,,,0.05,,2013-08-25 02:52:00,
2013-08-24 23:23:00,71.0,66.0,30.23,WNW,300,0.0,3.0,83,0.00,,,0.05,,2013-08-25 03:23:00,
2013-08-24 23:54:00,71.0,66.0,30.24,SSW,207,1.0,2.0,84,0.00,,,0.05,,2013-08-25 03:54:00,